• Processing (Info)

  • MPEC 2013-V88 : 2013 VY13

    The following Minor Planet Electronic Circular may be linked-to from your own Web pages, but must not otherwise be redistributed electronically.

    A form allowing access to any MPEC is at the bottom of this page.


    Read MPEC 2013-V87 Read MPEC 2013-V89


    M.P.E.C. 2013-V88                                Issued 2013 Nov. 13, 17:17 UT
    
         The Minor Planet Electronic Circulars contain information on unusual
             minor planets and routine data on comets.  They are published
       on behalf of Commission 20 of the International Astronomical Union by the
              Minor Planet Center, Smithsonian Astrophysical Observatory,
                              Cambridge, MA 02138, U.S.A.
    
                 Prepared using the Tamkin Foundation Computer Network
    
                                  MPC@CFA.HARVARD.EDU
                URL https://www.minorplanetcenter.net/    ISSN 1523-6714
    
                                       2013 VY13
    
    Observations:
         K13V13Y* C2013 11 12.37127 07 26 50.90 +43 17 40.5          18.4 VqEV088703
         K13V13Y  C2013 11 12.37847 07 26 45.90 +43 17 16.5          18.7 VqEV088703
         K13V13Y  C2013 11 12.38564 07 26 40.87 +43 16 53.1          18.5 VqEV088703
         K13V13Y  C2013 11 12.44223 07 26 01.53 +43 13 42.3          18.1 VqEV088703
         K13V13Y  C2013 11 12.45005 07 25 56.02 +43 13 15.1          18.2 VqEV088703
         K13V13Y  C2013 11 12.45492 07 25 52.02 +43 13 00.9          18   RoEV088711
         K13V13Y  C2013 11 12.45676 07 25 50.73 +43 12 54.7                oEV088711
         K13V13Y  C2013 11 12.45785 07 25 50.57 +43 12 48.1          18.4 VqEV088703
         K13V13Y  C2013 11 12.75522 07 22 36.68 +42 55 30.3          18.2 RoEV088300
         K13V13Y  C2013 11 12.75768 07 22 35.04 +42 55 22.3          18.2 RoEV088300
         K13V13Y  C2013 11 12.76014 07 22 33.42 +42 55 13.1          18.0 RoEV088300
         K13V13Y  C2013 11 12.76261 07 22 31.78 +42 55 05.8          18.1 RoEV088300
         K13V13Y  C2013 11 12.76507 07 22 30.09 +42 54 56.9          17.9 RoEV088300
         K13V13Y KC2013 11 12.87075 07 21 24.91 +42 47 52.3          18.1 RqEV088970
         K13V13Y KC2013 11 12.87480 07 21 22.31 +42 47 38.2          18.1 RqEV088970
         K13V13Y KC2013 11 12.87675 07 21 20.69 +42 47 28.2          18.2 RoEV088J41
         K13V13Y KC2013 11 12.87769 07 21 20.44 +42 47 28.6          18.1 RqEV088970
         K13V13Y KC2013 11 12.88735 07 21 14.04 +42 46 53.7          18.5 RoEV088J41
         K13V13Y KC2013 11 12.89792 07 21 07.29 +42 46 18.1          18.4 RoEV088J41
         K13V13Y KC2013 11 12.91386 07 20 57.72 +42 45 40.1          19.2 VtEV088595
         K13V13Y KC2013 11 12.92678 07 20 49.33 +42 44 57.3          19.0 VtEV088595
         K13V13Y KC2013 11 12.93910 07 20 41.55 +42 44 15.0          18.4 RcEV088A24
         K13V13Y KC2013 11 12.93997 07 20 40.77 +42 44 14.4                tEV088595
         K13V13Y KC2013 11 12.94215 07 20 39.57 +42 44 05.0          18.6 RcEV088A24
         K13V13Y KC2013 11 12.94520 07 20 37.57 +42 43 55.1          18.3 RcEV088A24
         K13V13Y KC2013 11 12.96768 07 20 22.94 +42 42 40.3          18.0 RuEV088K38
         K13V13Y KC2013 11 12.99290 07 20 06.53 +42 41 16.5          18.0 RuEV088K38
         K13V13Y KC2013 11 13.04040 07 19 35.51 +42 38 37.3          18.3 RqEV088204
         K13V13Y KC2013 11 13.04576 07 19 32.00 +42 38 19.3                qEV088204
         K13V13Y KC2013 11 13.05096 07 19 28.55 +42 38 01.5                qEV088204
         K13V13Y KC2013 11 13.05991 07 19 22.72 +42 37 31.3                qEV088204
         K13V13Y KC2013 11 13.21328 07 17 49.15 +42 28 21.0          18.0 RqEV088H36
         K13V13Y KC2013 11 13.21826 07 17 46.03 +42 28 04.5          18.8 RqEV088H36
         K13V13Y KC2013 11 13.22368 07 17 42.64 +42 27 46.5          18.3 RqEV088H36
    
    Observer details:
    204 Schiaparelli Observatory.  Observer L. Buzzi.  0.60-m f/4.64 reflector
        + CCD.
    300 Bisei Spaceguard Center--BATTeRS.  Observers A. Asami, K. Nishiyama.
        1.0-m f/3.0 reflector + CCD.
    595 Farra d'Isonzo.  Observers S. Deiuri, E. Pettarin.  Measurer E. Pettarin.
        0.40-m f/4.5 reflector + CCD.
    703 Catalina Sky Survey.  Observer R. A. Kowalski.  Measurers A. Boattini,
        E. J. Christensen, A. R. Gibbs, A. D. Grauer, R. E. Hill, J. A. Johnson,
        R. A. Kowalski, S. M. Larson, F. C. Shelly.  0.68-m Schmidt + CCD.
    711 McDonald Observatory.  Observer J. G. Ries.  2.1-m reflector + CCD + focal
        reducer.
    970 Chelmsford.  Observer N. James.  0.28-m f/10 Schmidt-Cassegrain + CCD.
    A24 New Millennium Observatory, Mozzate.  Observer E. Cozzi.  0.36-m f/11
        Schmidt-Cassegrain + CCD.
    H36 Sandlot Observatory, Scranton.  Observer G. Hug.  0.56-m reflector + CCD.
    J41 Raheny.  Observer D. Grennan.  0.35-m f/3.8 reflector + CCD.
    K38 M57 Observatory, Saltrio.  Observer G. Baj.  0.13-m f/8 refractor + CCD.
    
    Orbital elements:
    2013 VY13                                           PHA, Earth MOID = 0.0422 AU
    Epoch 2013 Nov. 4.0 TT = JDT 2456600.5                  MPC
    M  18.17748              (2000.0)            P               Q
    n   0.43409863     Peri.   86.86617     +0.97357249     +0.20702791
    a   1.7274697      Node   261.17049     -0.22826392     +0.89546972
    e   0.5139106      Incl.    5.59939     +0.00722436     +0.39404750
    P   2.27           H   21.0           G   0.15           U   7
    Residuals in seconds of arc
    131112 703  0.2+  0.3-    131112 300  1.2+  0.4+    131112 A24  0.1-  0.2+
    131112 703  0.2+  0.4-    131112 970  0.7+  0.3+    131112 K38  0.9-  0.3-
    131112 703  0.3-  0.1+    131112 970  0.4+  0.4-    131112 K38  0.9-  0.5-
    131112 703  0.3+  0.3+    131112 J41  1.0-  0.2-    131113 204  0.1-  0.3-
    131112 703  0.4-  0.1-    131112 970  0.0   0.5-    131113 204  0.1-  0.2-
    131112 711  0.2-  0.1+    131112 J41  0.3-  0.4+    131113 204  0.6-  0.4-
    131112 711  0.2-  0.3+    131112 J41  0.7-  0.1-    131113 204  0.1-  0.2-
    131112 703  0.6-  0.2-    131112 595  0.0   0.3-    131113 H36  0.1+  0.5+
    131112 300  0.1+  0.0     131112 595  0.4-  0.6-    131113 H36  0.4+  0.3+
    131112 300  0.4+  0.4+    131112 A24  0.3+  0.0     131113 H36  0.8+  0.1+
    131112 300  1.0+  0.3-    131112 595  0.5-  0.0
    131112 300  1.4+  0.8+    131112 A24  0.2+  0.0
    
    Ephemeris:
    2013 VY13                a,e,i = 1.73, 0.51, 6                   q = 0.8397
    Date    TT    R. A. (2000) Decl.     Delta      r     Elong.  Phase     V
    2013 10 14    14 25 16.5 +20 42 15   0.1391  0.8847    33.4   141.6    23.5
    ...
    2013 10 29    11 35 16.1 +46 08 06   0.09893 0.9628    69.3   105.2    19.8
    ...
    2013 11 06    08 57 51.1 +48 26 25   0.1071  1.0148    99.6    74.4    18.8
    ...
    2013 11 12    07 30 59.3 +43 39 02   0.1246  1.0569   119.6    54.5    18.6
    2013 11 13    07 19 59.2 +42 41 11   0.1282  1.0642   122.6    51.6    18.6
    2013 11 14    07 09 48.9 +41 42 55   0.1321  1.0714   125.5    48.8    18.6
    ...
    2013 11 20    06 22 32.9 +36 09 25   0.1586  1.1160   141.1    33.8    18.6
    ...
    2013 11 28    05 43 00.3 +30 11 52   0.2026  1.1773   158.4    18.0    18.8
    ...
    2013 12 13    05 04 16.1 +23 17 05   0.3105  1.2945   176.3     2.8    19.3
    
    A. U. Tomatic                (C) Copyright 2013 MPC           M.P.E.C. 2013-V88
    

    Read MPEC 2013-V87 Read MPEC 2013-V89


    MPEC number:

    Enter an MPEC number in one of the following forms:

    • 1997-B01 (the full form)
    • J97B01 (the packed version of the full form)
    • B01 (the abbreviated form)